Location: Breungeshain
(50.5000°N, 9.2000°E)
Time: 10:10:59
(UTC+00:00)

ISS - Pass Details

Date: 21 May 2018
Orbit: 402 x 407 km, 51.6° (Epoch: 24 May)

Event Time Altitude Azimuth Distance (km) Brightness Sun altitude
Rises 00:19:34 0° 279° (W) 2,320 0.0 -18.1°
Reaches altitude 10° 00:21:39 10° 281° (WNW) 1,459 -1.1 -18.1°
Maximum altitude 00:24:55 76° 7° (N) 420 -3.7 -17.9°
Drops below altitude 10° 00:28:12 10° 95° (E) 1,457 -0.9 -17.8°
Sets 00:30:16 0° 97° (E) 2,316 0.2 -17.7°
